User: anonymous   Login
Location: Nag� el Ma?a??a
(24.0667°N, 32.8833°E)
Time: 18:45:36
(UTC+00:00)
Language:

NOSS 3-4 (C) - Orbit

View from above orbital plane
View from above orbital plane
View from above satellite
View from above satellite

Ground track
Ground track

The orbit data is extracted from the following two-line orbital elements,

1 31708U 07027C   21332.71116941 0.00000000  00000-0  00000-0 0    09
2 31708  63.3936 255.9264 0328235  20.1258 339.8742 13.40823651    04
Epoch (UTC): 28 November 2021 17:04:05
Eccentricity: 0.0328235
inclination: 63.3936°
perigee height: 860 km
apogee height: 1352 km
right ascension of ascending node: 255.9264°
argument of perigee: 20.1258°
revolutions per day: 13.40823651
mean anomaly at epoch: 339.8742°
orbit number at epoch: 0

The dashed part of the orbit path shows where the satellite is in the earth's shadow,  

DLR